Time,TemperatureF,DewpointF,PressureIn,WindDirection,WindDirectionDegrees,WindSpeedMPH,WindSpeedGustMPH,Humidity,HourlyPrecipIn,Conditions,Clouds,dailyrainin,SoftwareType,DateUTC
2015-07-05 00:03:00,68.0,58.0,-100.00,NNE,20,0.0,2.0,71,-99.99,,,-99.99,,2015-07-05 04:03:00,
2015-07-05 00:13:00,67.0,59.0,-100.00,NNE,25,1.0,2.0,74,-99.99,,,-99.99,,2015-07-05 04:13:00,
2015-07-05 00:23:00,68.0,58.0,-100.00,NNE,30,0.0,3.0,70,-99.99,,,-99.99,,2015-07-05 04:23:00,
2015-07-05 00:33:00,67.0,58.0,-100.00,NE,40,0.0,3.0,73,-99.99,,,-99.99,,2015-07-05 04:33:00,
2015-07-05 00:43:00,66.0,58.0,-100.00,NE,40,0.0,2.0,75,-99.99,,,-99.99,,2015-07-05 04:43:00,
2015-07-05 00:53:00,68.0,58.0,-100.00,NE,45,1.0,2.0,70,-99.99,,,-99.99,,2015-07-05 04:53:00,
2015-07-05 01:03:00,67.0,58.0,-100.00,SE,145,0.0,1.0,72,-99.99,,,-99.99,,2015-07-05 05:03:00,
2015-07-05 01:13:00,67.0,58.0,-100.00,SSW,200,1.0,2.0,73,-99.99,,,-99.99,,2015-07-05 05:13:00,
2015-07-05 01:23:00,66.0,58.0,-100.00,SSW,195,0.0,2.0,75,-99.99,,,-99.99,,2015-07-05 05:23:00,
2015-07-05 01:33:00,66.0,58.0,-100.00,NE,35,0.0,2.0,73,-99.99,,,-99.99,,2015-07-05 05:33:00,
2015-07-05 01:43:00,65.0,59.0,-100.00,North,0,1.0,3.0,80,-99.99,,,-99.99,,2015-07-05 05:43:00,
2015-07-05 01:53:00,64.0,59.0,-100.00,North,350,1.0,3.0,83,-99.99,,,-99.99,,2015-07-05 05:53:00,
2015-07-05 02:03:00,64.0,59.0,-100.00,North,355,0.0,2.0,82,-99.99,,,-99.99,,2015-07-05 06:03:00,
2015-07-05 02:13:00,64.0,59.0,-100.00,North,355,0.0,2.0,82,-99.99,,,-99.99,,2015-07-05 06:13:00,
2015-07-05 02:23:00,65.0,58.0,-100.00,NNE,30,0.0,3.0,77,-99.99,,,-99.99,,2015-07-05 06:23:00,
2015-07-05 02:33:00,65.0,58.0,-100.00,NNE,30,0.0,3.0,77,-99.99,,,-99.99,,2015-07-05 06:33:00,
2015-07-05 02:44:00,65.0,58.0,-100.00,NNE,30,0.0,3.0,77,-99.99,,,-99.99,,2015-07-05 06:44:00,
2015-07-05 02:53:00,63.0,58.0,-100.00,NNW,335,0.0,2.0,83,-99.99,,,-99.99,,2015-07-05 06:53:00,
2015-07-05 03:03:00,63.0,58.0,-100.00,NNW,335,0.0,2.0,83,-99.99,,,-99.99,,2015-07-05 07:03:00,
2015-07-05 03:13:00,63.0,58.0,-100.00,NNW,335,0.0,2.0,83,-99.99,,,-99.99,,2015-07-05 07:13:00,
2015-07-05 03:23:00,63.0,58.0,-100.00,NNW,335,0.0,2.0,83,-99.99,,,-99.99,,2015-07-05 07:23:00,
2015-07-05 03:33:00,63.0,58.0,-100.00,NNW,335,0.0,2.0,83,-99.99,,,-99.99,,2015-07-05 07:33:00,
2015-07-05 03:44:00,63.0,58.0,-100.00,North,355,0.0,1.0,84,-99.99,,,-99.99,,2015-07-05 07:44:00,
2015-07-05 03:53:00,63.0,58.0,-100.00,North,355,0.0,1.0,84,-99.99,,,-99.99,,2015-07-05 07:53:00,
2015-07-05 04:03:00,63.0,58.0,-100.00,North,5,0.0,1.0,84,-99.99,,,-99.99,,2015-07-05 08:03:00,
2015-07-05 04:13:00,62.0,58.0,-100.00,North,0,1.0,1.0,85,-99.99,,,-99.99,,2015-07-05 08:13:00,
2015-07-05 04:23:00,62.0,58.0,-100.00,North,5,1.0,2.0,85,-99.99,,,-99.99,,2015-07-05 08:23:00,
2015-07-05 04:33:00,62.0,58.0,-100.00,North,5,1.0,2.0,85,-99.99,,,-99.99,,2015-07-05 08:33:00,
2015-07-05 04:43:00,62.0,58.0,-100.00,North,0,0.0,2.0,85,-99.99,,,-99.99,,2015-07-05 08:43:00,
2015-07-05 04:53:00,62.0,58.0,-100.00,North,10,0.0,3.0,84,-99.99,,,-99.99,,2015-07-05 08:53:00,
2015-07-05 05:03:00,62.0,58.0,-100.00,North,350,0.0,1.0,85,-99.99,,,-99.99,,2015-07-05 09:03:00,
2015-07-05 05:13:00,62.0,57.0,-100.00,North,355,0.0,1.0,84,-99.99,,,-99.99,,2015-07-05 09:13:00,
2015-07-05 05:23:00,62.0,57.0,-100.00,North,0,0.0,1.0,83,-99.99,,,-99.99,,2015-07-05 09:23:00,
2015-07-05 05:34:00,62.0,57.0,-100.00,North,0,1.0,2.0,85,-99.99,,,-99.99,,2015-07-05 09:34:00,
2015-07-05 05:43:00,62.0,57.0,-100.00,North,0,1.0,3.0,85,-99.99,,,-99.99,,2015-07-05 09:43:00,
2015-07-05 05:53:00,62.0,57.0,-100.00,North,5,1.0,3.0,84,-99.99,,,-99.99,,2015-07-05 09:53:00,
2015-07-05 06:03:00,61.0,57.0,-100.00,North,0,1.0,3.0,85,-99.99,,,-99.99,,2015-07-05 10:03:00,
2015-07-05 06:13:00,61.0,57.0,-100.00,North,350,1.0,4.0,85,-99.99,,,-99.99,,2015-07-05 10:13:00,
2015-07-05 06:23:00,60.0,56.0,-100.00,NNW,330,2.0,3.0,86,-99.99,,,-99.99,,2015-07-05 10:23:00,
2015-07-05 06:33:00,61.0,56.0,-100.00,NNW,345,2.0,4.0,83,-99.99,,,-99.99,,2015-07-05 10:33:00,
2015-07-05 06:43:00,60.0,56.0,-100.00,NNW,340,2.0,3.0,84,-99.99,,,-99.99,,2015-07-05 10:43:00,
2015-07-05 06:53:00,61.0,56.0,-100.00,North,355,1.0,2.0,83,-99.99,,,-99.99,,2015-07-05 10:53:00,
2015-07-05 07:03:00,61.0,56.0,-100.00,NNW,340,1.0,3.0,83,-99.99,,,-99.99,,2015-07-05 11:03:00,
2015-07-05 07:13:00,61.0,56.0,-100.00,NW,320,2.0,4.0,83,-99.99,,,-99.99,,2015-07-05 11:13:00,
2015-07-05 07:23:00,60.0,56.0,-100.00,NNW,330,2.0,3.0,85,-99.99,,,-99.99,,2015-07-05 11:23:00,
2015-07-05 07:33:00,60.0,56.0,-100.00,NNW,335,2.0,3.0,84,-99.99,,,-99.99,,2015-07-05 11:33:00,
2015-07-05 07:44:00,60.0,55.0,-100.00,NW,305,2.0,4.0,85,-99.99,,,-99.99,,2015-07-05 11:44:00,
2015-07-05 07:54:00,60.0,55.0,-100.00,NW,305,2.0,4.0,85,-99.99,,,-99.99,,2015-07-05 11:54:00,
2015-07-05 08:03:00,62.0,56.0,-100.00,NNW,345,1.0,3.0,81,-99.99,,,-99.99,,2015-07-05 12:03:00,
2015-07-05 08:13:00,63.0,56.0,-100.00,NNW,345,2.0,6.0,79,-99.99,,,-99.99,,2015-07-05 12:13:00,
2015-07-05 08:23:00,64.0,57.0,-100.00,North,350,1.0,3.0,80,-99.99,,,-99.99,,2015-07-05 12:23:00,
2015-07-05 08:33:00,64.0,58.0,-100.00,North,355,2.0,3.0,79,-99.99,,,-99.99,,2015-07-05 12:33:00,
2015-07-05 08:44:00,65.0,59.0,-100.00,NNW,340,2.0,5.0,79,-99.99,,,-99.99,,2015-07-05 12:44:00,
2015-07-05 08:54:00,65.0,59.0,-100.00,NNW,345,4.0,6.0,79,-99.99,,,-99.99,,2015-07-05 12:54:00,
2015-07-05 09:03:00,66.0,59.0,-100.00,North,350,3.0,5.0,78,-99.99,,,-99.99,,2015-07-05 13:03:00,
2015-07-05 09:13:00,67.0,59.0,-100.00,NNW,345,4.0,6.0,76,-99.99,,,-99.99,,2015-07-05 13:13:00,
2015-07-05 09:23:00,68.0,60.0,-100.00,NNE,30,3.0,6.0,75,-99.99,,,-99.99,,2015-07-05 13:23:00,
2015-07-05 09:33:00,68.0,59.0,-100.00,NNE,20,3.0,6.0,72,-99.99,,,-99.99,,2015-07-05 13:33:00,
2015-07-05 09:43:00,69.0,60.0,-100.00,NNE,25,2.0,6.0,72,-99.99,,,-99.99,,2015-07-05 13:43:00,
2015-07-05 09:53:00,69.0,59.0,-100.00,North,0,3.0,6.0,70,-99.99,,,-99.99,,2015-07-05 13:53:00,
2015-07-05 10:03:00,70.0,60.0,-100.00,NE,55,2.0,5.0,71,-99.99,,,-99.99,,2015-07-05 14:03:00,
2015-07-05 10:13:00,70.0,60.0,-100.00,North,5,2.0,5.0,70,-99.99,,,-99.99,,2015-07-05 14:13:00,
2015-07-05 10:23:00,71.0,60.0,-100.00,NE,40,3.0,5.0,69,-99.99,,,-99.99,,2015-07-05 14:23:00,
2015-07-05 10:34:00,71.0,61.0,-100.00,NE,45,2.0,5.0,70,-99.99,,,-99.99,,2015-07-05 14:34:00,
2015-07-05 10:43:00,72.0,61.0,-100.00,NNE,20,1.0,3.0,69,-99.99,,,-99.99,,2015-07-05 14:43:00,
2015-07-05 10:53:00,72.0,60.0,-100.00,NE,40,1.0,4.0,67,-99.99,,,-99.99,,2015-07-05 14:53:00,
2015-07-05 11:13:00,73.0,60.0,-100.00,NE,50,2.0,6.0,63,-99.99,,,-99.99,,2015-07-05 15:13:00,
2015-07-05 11:23:00,74.0,61.0,-100.00,NE,50,1.0,5.0,63,-99.99,,,-99.99,,2015-07-05 15:23:00,
2015-07-05 11:33:00,74.0,59.0,-100.00,NNE,20,2.0,5.0,60,-99.99,,,-99.99,,2015-07-05 15:33:00,
2015-07-05 11:43:00,75.0,60.0,-100.00,ENE,60,1.0,6.0,61,-99.99,,,-99.99,,2015-07-05 15:43:00,
2015-07-05 11:54:00,75.0,58.0,-100.00,North,10,2.0,7.0,56,-99.99,,,-99.99,,2015-07-05 15:54:00,
2015-07-05 12:03:00,75.0,59.0,-100.00,East,80,1.0,6.0,56,-99.99,,,-99.99,,2015-07-05 16:03:00,
2015-07-05 12:13:00,75.0,58.0,-100.00,NNE,20,2.0,7.0,56,-99.99,,,-99.99,,2015-07-05 16:13:00,
2015-07-05 12:24:00,75.0,58.0,-100.00,NNE,30,2.0,6.0,55,-99.99,,,-99.99,,2015-07-05 16:24:00,
2015-07-05 12:34:00,75.0,58.0,-100.00,East,80,1.0,5.0,55,-99.99,,,-99.99,,2015-07-05 16:34:00,
2015-07-05 12:44:00,76.0,59.0,-100.00,ESE,120,2.0,4.0,56,-99.99,,,-99.99,,2015-07-05 16:44:00,
2015-07-05 12:53:00,75.0,58.0,-100.00,North,0,2.0,5.0,54,-99.99,,,-99.99,,2015-07-05 16:53:00,
2015-07-05 13:04:00,76.0,59.0,-100.00,NE,45,4.0,6.0,54,-99.99,,,-99.99,,2015-07-05 17:04:00,
2015-07-05 13:13:00,76.0,59.0,-100.00,North,0,2.0,6.0,54,-99.99,,,-99.99,,2015-07-05 17:13:00,
2015-07-05 13:24:00,76.0,59.0,-100.00,NNE,30,2.0,6.0,56,-99.99,,,-99.99,,2015-07-05 17:24:00,
2015-07-05 13:34:00,76.0,57.0,-100.00,NNE,30,3.0,6.0,51,-99.99,,,-99.99,,2015-07-05 17:34:00,
2015-07-05 13:44:00,78.0,58.0,-100.00,NNE,20,3.0,6.0,50,-99.99,,,-99.99,,2015-07-05 17:44:00,
2015-07-05 13:53:00,78.0,60.0,-100.00,NE,50,2.0,6.0,54,-99.99,,,-99.99,,2015-07-05 17:53:00,
2015-07-05 14:04:00,78.0,59.0,-100.00,ENE,60,2.0,8.0,52,-99.99,,,-99.99,,2015-07-05 18:04:00,
2015-07-05 14:13:00,78.0,60.0,-100.00,ENE,60,3.0,8.0,55,-99.99,,,-99.99,,2015-07-05 18:13:00,
2015-07-05 14:23:00,77.0,58.0,-100.00,North,0,4.0,7.0,51,-99.99,,,-99.99,,2015-07-05 18:23:00,
2015-07-05 14:34:00,78.0,60.0,-100.00,NE,45,3.0,6.0,54,-99.99,,,-99.99,,2015-07-05 18:34:00,
2015-07-05 14:44:00,78.0,61.0,-100.00,NNE,25,3.0,7.0,56,-99.99,,,-99.99,,2015-07-05 18:44:00,
2015-07-05 14:53:00,78.0,60.0,-100.00,NNE,20,2.0,7.0,55,-99.99,,,-99.99,,2015-07-05 18:53:00,
2015-07-05 15:04:00,77.0,59.0,-100.00,North,10,4.0,7.0,54,-99.99,,,-99.99,,2015-07-05 19:04:00,
2015-07-05 15:13:00,76.0,60.0,-100.00,NNE,15,6.0,8.0,56,-99.99,,,-99.99,,2015-07-05 19:13:00,
2015-07-05 15:23:00,77.0,60.0,-100.00,NE,35,1.0,7.0,54,-99.99,,,-99.99,,2015-07-05 19:23:00,
2015-07-05 15:34:00,77.0,60.0,-100.00,NE,45,4.0,7.0,56,-99.99,,,-99.99,,2015-07-05 19:34:00,
2015-07-05 15:44:00,77.0,61.0,-100.00,North,5,2.0,7.0,57,-99.99,,,-99.99,,2015-07-05 19:44:00,
2015-07-05 15:53:00,76.0,61.0,-100.00,North,0,3.0,7.0,59,-99.99,,,-99.99,,2015-07-05 19:53:00,
2015-07-05 16:03:00,76.0,61.0,-100.00,NNE,20,1.0,7.0,58,-99.99,,,-99.99,,2015-07-05 20:03:00,
2015-07-05 16:13:00,77.0,61.0,-100.00,North,5,1.0,6.0,58,-99.99,,,-99.99,,2015-07-05 20:13:00,
2015-07-05 16:23:00,76.0,62.0,-100.00,NNE,30,1.0,5.0,60,-99.99,,,-99.99,,2015-07-05 20:23:00,